• In Uzbekistan
  • List of Countries
  • For 7 days
  • Water Temperature
  • Satellite Maps
  • Weather Map
  • Weather Widgets
  • user-avatar
    Login

    Hourly Weather Nachyn

    Today, 18 November, Sunday

    Time Temperature Precipitation Wind Pressure Humidity
    00:00 +1°C° 0.1 mm 3 mps 766 mmHg 45%
    01:00 0°C° 0 mm 3 mps 766 mmHg 44%
    02:00 -1°C° 0 mm 4 mps 766 mmHg 44%
    03:00 -1°C° 0 mm 3 mps 766 mmHg 44%
    04:00 -1°C° 0 mm 3 mps 766 mmHg 43%
    05:00 -1°C° 0 mm 3 mps 766 mmHg 41%
    06:00 -1°C° 0 mm 3 mps 766 mmHg 40%
    07:00 0°C° 0 mm 3 mps 766 mmHg 38%
    08:00 +1°C° 0 mm 3 mps 766 mmHg 35%
    09:00 +3°C° 0 mm 2 mps 766 mmHg 34%
    10:00 +4°C° 0 mm 2 mps 766 mmHg 32%
    11:00 +4°C° 0 mm 3 mps 765 mmHg 29%
    12:00 +7°C° 0 mm 3 mps 765 mmHg 27%
    13:00 +7°C° 0 mm 2 mps 764 mmHg 28%
    14:00 +7°C° 0 mm 2 mps 764 mmHg 29%
    15:00 +7°C° 0 mm 2 mps 764 mmHg 30%
    16:00 +5°C° 0 mm 2 mps 764 mmHg 37%
    17:00 +5°C° 0 mm 1 mps 764 mmHg 45%
    18:00 +3°C° 0 mm 1 mps 765 mmHg 52%
    19:00 +3°C° 0 mm 1 mps 764 mmHg 56%
    20:00 +3°C° 0 mm 1 mps 764 mmHg 59%
    21:00 +2°C° 0 mm 1 mps 764 mmHg 62%
    22:00 +2°C° 0 mm 1 mps 764 mmHg 62%
    23:00 +2°C° 0 mm 1 mps 764 mmHg 62%

    Tomorrow, 19 November, Monday

    Time Temperature Precipitation Wind Pressure Humidity
    00:00 +2°C° 0 mm 1 mps 764 mmHg 62%
    01:00 +2°C° 0 mm 1 mps 764 mmHg 61%
    02:00 +2°C° 0 mm 1 mps 765 mmHg 59%
    03:00 +2°C° 0 mm 2 mps 765 mmHg 57%
    04:00 0°C° 0 mm 3 mps 765 mmHg 55%
    05:00 -1°C° 0 mm 4 mps 765 mmHg 53%
    06:00 -1°C° 0 mm 5 mps 765 mmHg 51%
    07:00 -2°C° 0 mm 6 mps 765 mmHg 50%
    08:00 -1°C° 0 mm 6 mps 766 mmHg 48%
    09:00 -1°C° 0 mm 7 mps 766 mmHg 47%
    10:00 0°C° 0 mm 7 mps 766 mmHg 45%
    11:00 0°C° 0 mm 7 mps 766 mmHg 43%
    12:00 +2°C° 0 mm 6 mps 766 mmHg 42%
    13:00 +2°C° 0 mm 6 mps 766 mmHg 41%
    14:00 +2°C° 0 mm 6 mps 766 mmHg 40%
    15:00 +2°C° 0 mm 6 mps 766 mmHg 39%
    16:00 +1°C° 0 mm 5 mps 766 mmHg 43%
    17:00 0°C° 0 mm 5 mps 767 mmHg 48%
    18:00 -1°C° 0 mm 5 mps 767 mmHg 53%
    19:00 -2°C° 0 mm 4 mps 768 mmHg 54%
    20:00 -2°C° 0 mm 4 mps 768 mmHg 55%
    21:00 -2°C° 0 mm 4 mps 768 mmHg 56%
    22:00 -1°C° 0 mm 3 mps 768 mmHg 56%
    23:00 -1°C° 0 mm 3 mps 768 mmHg 56%

    Day after tomorrow, 20 November, Tuesday

    Time Temperature Precipitation Wind Pressure Humidity
    00:00 -1°C° 0 mm 2 mps 768 mmHg 56%
    01:00 -1°C° 0 mm 2 mps 768 mmHg 56%
    02:00 -2°C° 0 mm 2 mps 768 mmHg 56%
    03:00 0°C° 0 mm 1 mps 768 mmHg 56%
    04:00 0°C° 0 mm 1 mps 768 mmHg 55%
    05:00 0°C° 0 mm 1 mps 768 mmHg 55%
    06:00 0°C° 0 mm 1 mps 768 mmHg 54%
    07:00 +1°C° 0 mm 1 mps 768 mmHg 52%
    08:00 +2°C° 0 mm 1 mps 768 mmHg 49%
    09:00 +2°C° 0 mm 2 mps 768 mmHg 47%
    10:00 +2°C° 0 mm 3 mps 767 mmHg 49%
    11:00 +3°C° 0 mm 4 mps 766 mmHg 52%
    12:00 +5°C° 0 mm 5 mps 766 mmHg 54%
    13:00 +3°C° 0.3 mm 5 mps 765 mmHg 62%
    14:00 +3°C° 0.3 mm 5 mps 765 mmHg 71%
    15:00 +2°C° 0.3 mm 5 mps 764 mmHg 79%
    16:00 +1°C° 0.3 mm 5 mps 764 mmHg 82%
    17:00 +1°C° 0.3 mm 5 mps 764 mmHg 85%
    18:00 0°C° 0.3 mm 4 mps 764 mmHg 89%
    19:00 -2°C° 0 mm 6 mps 765 mmHg 86%
    20:00 -2°C° 0 mm 7 mps 765 mmHg 82%
    21:00 -4°C° 0 mm 8 mps 766 mmHg 79%
    22:00 -5°C° 0 mm 8 mps 766 mmHg 72%
    23:00 -5°C° 0 mm 8 mps 767 mmHg 65%

    21 November, Wednesday

    Time Temperature Precipitation Wind Pressure Humidity
    00:00 -6°C° 0 mm 9 mps 768 mmHg 58%
    01:00 -8°C° 0 mm 9 mps 768 mmHg 55%
    02:00 -8°C° 0 mm 9 mps 769 mmHg 52%
    03:00 -9°C° 0 mm 9 mps 769 mmHg 48%
    04:00 -8°C° 0 mm 8 mps 770 mmHg 46%
    05:00 -10°C° 0 mm 8 mps 770 mmHg 45%
    06:00 -9°C° 0 mm 7 mps 770 mmHg 43%
    07:00 -9°C° 0 mm 7 mps 770 mmHg 40%
    08:00 -8°C° 0 mm 7 mps 771 mmHg 37%
    09:00 -8°C° 0 mm 6 mps 771 mmHg 34%
    10:00 -6°C° 0 mm 6 mps 771 mmHg 32%
    11:00 -5°C° 0 mm 6 mps 770 mmHg 29%
    12:00 -3°C° 0 mm 6 mps 770 mmHg 27%
    13:00 -2°C° 0 mm 5 mps 769 mmHg 27%
    14:00 -2°C° 0 mm 5 mps 768 mmHg 28%
    15:00 -1°C° 0 mm 4 mps 768 mmHg 28%
    16:00 -1°C° 0 mm 3 mps 768 mmHg 33%
    17:00 -4°C° 0 mm 3 mps 768 mmHg 39%
    18:00 -4°C° 0 mm 2 mps 768 mmHg 44%
    19:00 -4°C° 0 mm 2 mps 768 mmHg 45%
    20:00 -4°C° 0 mm 2 mps 768 mmHg 46%
    21:00 -4°C° 0 mm 2 mps 768 mmHg 47%
    22:00 -4°C° 0 mm 2 mps 768 mmHg 47%
    23:00 -4°C° 0 mm 2 mps 768 mmHg 48%

    22 November, Thursday

    Time Temperature Precipitation Wind Pressure Humidity
    00:00 -5°C° 0 mm 2 mps 768 mmHg 48%
    01:00 -5°C° 0 mm 2 mps 768 mmHg 47%
    02:00 -5°C° 0 mm 2 mps 767 mmHg 46%
    03:00 -5°C° 0 mm 2 mps 767 mmHg 44%
    04:00 -5°C° 0 mm 2 mps 767 mmHg 44%
    05:00 -6°C° 0 mm 3 mps 766 mmHg 44%
    06:00 -6°C° 0 mm 3 mps 766 mmHg 44%
    07:00 -5°C° 0 mm 4 mps 766 mmHg 42%
    08:00 -4°C° 0 mm 4 mps 766 mmHg 41%
    09:00 -3°C° 0 mm 4 mps 766 mmHg 39%
    10:00 -4°C° 0 mm 5 mps 766 mmHg 36%
    11:00 -3°C° 0 mm 6 mps 766 mmHg 34%
    12:00 -3°C° 0 mm 7 mps 766 mmHg 31%
    13:00 -4°C° 0 mm 8 mps 766 mmHg 32%
    14:00 -5°C° 0 mm 9 mps 765 mmHg 33%
    15:00 -7°C° 0 mm 10 mps 765 mmHg 34%
    16:00 -8°C° 0 mm 10 mps 766 mmHg 35%
    17:00 -9°C° 0 mm 10 mps 767 mmHg 36%
    18:00 -10°C° 0 mm 10 mps 767 mmHg 37%
    19:00 -10°C° 0 mm 10 mps 768 mmHg 40%
    20:00 -10°C° 0 mm 10 mps 768 mmHg 44%
    21:00 -10°C° 0 mm 9 mps 769 mmHg 47%
    22:00 -11°C° 0 mm 9 mps 769 mmHg 46%
    23:00 -11°C° 0 mm 9 mps 769 mmHg 45%

    23 November, Friday

    Time Temperature Precipitation Wind Pressure Humidity
    00:00 -11°C° 0 mm 9 mps 769 mmHg 44%
    01:00 -12°C° 0 mm 9 mps 769 mmHg 43%
    02:00 -12°C° 0 mm 9 mps 769 mmHg 41%
    03:00 -12°C° 0 mm 8 mps 769 mmHg 40%
    04:00 -12°C° 0 mm 8 mps 770 mmHg 40%
    05:00 -12°C° 0 mm 8 mps 770 mmHg 40%
    06:00 -12°C° 0 mm 7 mps 770 mmHg 39%
    07:00 -12°C° 0 mm 7 mps 770 mmHg 38%
    08:00 -11°C° 0 mm 7 mps 770 mmHg 36%
    09:00 -10°C° 0 mm 6 mps 770 mmHg 34%
    10:00 -8°C° 0 mm 6 mps 769 mmHg 31%
    11:00 -6°C° 0 mm 6 mps 769 mmHg 28%
    12:00 -4°C° 0 mm 6 mps 768 mmHg 24%
    13:00 -4°C° 0 mm 5 mps 768 mmHg 25%
    14:00 -2°C° 0 mm 5 mps 767 mmHg 25%
    15:00 -2°C° 0 mm 5 mps 766 mmHg 26%
    16:00 -4°C° 0 mm 5 mps 767 mmHg 30%
    17:00 -4°C° 0 mm 4 mps 767 mmHg 34%
    18:00 -5°C° 0 mm 4 mps 767 mmHg 39%
    19:00 -5°C° 0 mm 4 mps 767 mmHg 40%
    20:00 -5°C° 0 mm 4 mps 767 mmHg 41%
    21:00 -5°C° 0 mm 3 mps 767 mmHg 42%
    22:00 -5°C° 0 mm 3 mps 767 mmHg 42%
    23:00 -5°C° 0 mm 3 mps 767 mmHg 42%
    Show more